WA6OOO Weather Reports


time (UTC)temp
C
wind
direction
speed
KPH
gust
KPH
rain 1hr
cm
rain 24hr
cm
rain mn
cm
humidity
%
barometer
mb
20260507051618 13 214 1.6 3.2 0.00 0.00 0.00 91 1020.2
20260507051115 13 274 1.6 1.6 0.00 0.00 0.00 91 1020.3
20260507050611 13 294 3.2 3.2 0.00 0.00 0.00 90 1020.4
20260507050108 13 216 0.0 1.6 0.00 0.00 0.00 90 1020.2
20260507045605 13 217 0.0 1.6 0.00 0.00 0.00 90 1020.2
20260507045102 13 219 0.0 1.6 0.00 0.00 0.00 90 1020.0
20260507044558 13 219 0.0 1.6 0.00 0.00 0.00 90 1020.3
20260507044056 13 204 0.0 0.0 0.00 0.00 0.00 90 1020.4
20260507043551 13 184 1.6 1.6 0.00 0.00 0.00 89 1020.2
20260507043049 14 219 1.6 1.6 0.00 0.00 0.00 89 1020.2
20260507042544 13 212 0.0 1.6 0.00 0.00 0.00 89 1020.1
20260507042040 13 199 0.0 1.6 0.00 0.00 0.00 88 1020.1
20260507041537 14 201 0.0 1.6 0.00 0.00 0.00 88 1020.0
20260507041034 14 209 0.0 1.6 0.00 0.00 0.00 88 1020.1
20260507040531 14 236 1.6 1.6 0.00 0.00 0.00 88 1019.9
20260507040026 14 211 1.6 3.2 0.00 0.00 0.00 87 1020.0
20260507035523 15 210 1.6 1.6 0.00 0.00 0.00 87 1019.8
20260507035020 15 211 1.6 1.6 0.00 0.00 0.00 86 1019.8
20260507034517 15 210 1.6 1.6 0.00 0.00 0.00 87 1019.7
20260507034015 14 202 0.0 0.0 0.00 0.00 0.00 87 1019.6
20260507033512 14 208 0.0 0.0 0.00 0.00 0.00 87 1019.6
20260507033009 14 204 0.0 0.0 0.00 0.00 0.00 87 1019.5
20260507032506 15 205 0.0 0.0 0.00 0.00 0.00 87 1019.3
20260507032002 15 202 0.0 0.0 0.00 0.00 0.00 87 1019.4
20260507031458 15 205 0.0 0.0 0.00 0.00 0.00 86 1019.3
20260507030955 15 208 0.0 0.0 0.00 0.00 0.00 86 1019.3
20260507030452 15 208 0.0 0.0 0.00 0.00 0.00 85 1019.3
20260507025950 15 210 0.0 1.6 0.00 0.00 0.00 85 1019.1
20260507025447 15 207 0.0 1.6 0.00 0.00 0.00 84 1019.2
20260507024945 15 217 1.6 3.2 0.00 0.00 0.00 83 1019.1
20260507024442 15 212 1.6 3.2 0.00 0.00 0.00 82 1019.2
20260507023937 15 213 1.6 3.2 0.00 0.00 0.00 80 1019.1
20260507023435 15 211 0.0 3.2 0.00 0.00 0.00 78 1019.0
20260507022931 15 212 1.6 1.6 0.00 0.00 0.00 77 1019.0
20260507022429 15 206 1.6 3.2 0.00 0.00 0.00 77 1018.9
20260507021924 16 230 3.2 3.2 0.00 0.00 0.00 78 1018.9
20260507021420 16 202 1.6 4.8 0.00 0.00 0.00 78 1018.9
20260507020918 16 205 1.6 4.8 0.00 0.00 0.00 79 1019.0
20260507020414 16 196 4.8 4.8 0.00 0.00 0.00 79 1018.7
20260507015911 16 183 0.0 6.4 0.00 0.00 0.00 80 1019.1
20260507015409 16 220 4.8 6.4 0.00 0.00 0.00 78 1018.8
20260507014906 17 225 4.8 9.7 0.00 0.00 0.00 77 1018.8
20260507014402 17 217 3.2 9.7 0.00 0.00 0.00 75 1019.0
20260507013859 17 215 4.8 4.8 0.00 0.00 0.00 74 1018.8
20260507013356 17 248 4.8 6.4 0.00 0.00 0.00 73 1018.8
20260507012853 17 201 3.2 9.7 0.00 0.00 0.00 71 1018.7
20260507012350 18 210 3.2 4.8 0.00 0.00 0.00 70 1018.8
20260507011847 18 202 4.8 6.4 0.00 0.00 0.00 70 1018.9
20260507011344 18 243 3.2 9.7 0.00 0.00 0.00 69 1018.8
20260507010843 18 209 3.2 6.4 0.00 0.00 0.00 69 1018.7
20260507010339 18 215 8.0 11.3 0.00 0.00 0.00 68 1018.9
20260507005836 18 234 1.6 11.3 0.00 0.00 0.00 67 1019.0
20260507005333 18 225 3.2 9.7 0.00 0.00 0.00 68 1018.9
20260507004830 18 226 6.4 11.3 0.00 0.00 0.00 68 1018.8
20260507004327 18 265 3.2 12.9 0.00 0.00 0.00 68 1019.0
20260507003824 18 209 4.8 11.3 0.00 0.00 0.00 67 1019.1
20260507003319 18 201 4.8 9.7 0.00 0.00 0.00 68 1019.0
20260507002815 18 215 6.4 11.3 0.00 0.00 0.00 66 1018.9
20260507002311 18 222 4.8 6.4 0.00 0.00 0.00 65 1018.9
20260507001809 18 238 1.6 9.7 0.00 0.00 0.00 64 1019.1
20260507001306 18 207 6.4 12.9 0.00 0.00 0.00 63 1019.1
20260507000802 18 218 3.2 16.1 0.00 0.00 0.00 64 1019.1
20260507000259 18 218 8.0 11.3 0.00 0.00 0.00 63 1018.9
20260506235754 18 182 4.8 11.3 0.00 0.00 0.00 62 1019.0
20260506235250 19 179 6.4 11.3 0.00 0.00 0.00 62 1018.9
20260506234747 18 217 6.4 11.3 0.00 0.00 0.00 63 1019.2
20260506234244 18 218 4.8 11.3 0.00 0.00 0.00 62 1019.0
20260506233742 19 211 6.4 12.9 0.00 0.00 0.00 62 1019.1
20260506233238 19 216 4.8 20.9 0.00 0.00 0.00 63 1019.0
20260506232735 19 156 4.8 14.5 0.00 0.00 0.00 61 1019.1
20260506232230 19 246 6.4 12.9 0.00 0.00 0.00 61 1019.0
20260506231727 19 216 9.7 14.5 0.00 0.00 0.00 63 1019.1
20260506231226 20 232 4.8 6.4 0.00 0.00 0.00 62 1019.0
20260506230722 19 269 8.0 11.3 0.00 0.00 0.00 63 1019.2
20260506230219 19 284 6.4 11.3 0.00 0.00 0.00 63 1019.2
20260506225715 20 172 4.8 14.5 0.00 0.00 0.00 63 1019.2
20260506225212 20 187 6.4 11.3 0.00 0.00 0.00 62 1019.4
20260506224709 20 225 3.2 12.9 0.00 0.00 0.00 63 1019.6
20260506224206 19 211 6.4 14.5 0.00 0.00 0.00 64 1019.7
20260506223702 20 276 8.0 9.7 0.00 0.00 0.00 63 1019.6
20260506223158 20 200 4.8 11.3 0.00 0.00 0.00 64 1019.7
20260506222655 20 253 6.4 12.9 0.00 0.00 0.00 62 1019.9
20260506222151 18 198 1.6 11.3 0.00 0.00 0.00 66 1019.9
20260506221649 18 110 6.4 12.9 0.00 0.00 0.00 67 1020.0
20260506221147 19 359 3.2 9.7 0.00 0.00 0.00 65 1020.0
20260506220643 19 184 6.4 14.5 0.00 0.00 0.00 66 1020.2
20260506220138 19 192 3.2 11.3 0.00 0.00 0.00 64 1020.1
20260506215635 20 92 4.8 17.7 0.00 0.00 0.00 64 1020.3
20260506215130 20 245 8.0 11.3 0.00 0.00 0.00 64 1020.3
20260506214628 20 217 3.2 11.3 0.00 0.00 0.00 64 1020.5
20260506214125 19 71 6.4 12.9 0.00 0.00 0.00 65 1020.4
20260506213623 19 245 8.0 14.5 0.00 0.00 0.00 66 1020.4
20260506213120 20 245 6.4 9.7 0.00 0.00 0.00 64 1020.6
20260506212618 19 239 4.8 9.7 0.00 0.00 0.00 66 1020.6
20260506212112 19 197 6.4 11.3 0.00 0.00 0.00 66 1020.6
20260506211608 20 303 4.8 9.7 0.00 0.00 0.00 64 1020.6
20260506211105 19 225 4.8 6.4 0.00 0.00 0.00 64 1020.6
20260506210602 20 217 1.6 11.3 0.00 0.00 0.00 64 1020.7
20260506210058 20 199 3.2 6.4 0.00 0.00 0.00 65 1020.8
20260506205555 19 243 6.4 11.3 0.00 0.00 0.00 65 1020.8
20260506205050 19 210 6.4 14.5 0.00 0.00 0.00 65 1020.8
20260506204549 20 204 6.4 12.9 0.00 0.00 0.00 62 1020.8
20260506204045 19 177 3.2 9.7 0.00 0.00 0.00 61 1020.9
20260506203544 20 199 8.0 9.7 0.00 0.00 0.00 64 1021.0
20260506203040 20 199 9.7 11.3 0.00 0.00 0.00 61 1021.0
20260506202537 20 212 3.2 9.7 0.00 0.00 0.00 62 1021.0
20260506202033 20 180 6.4 11.3 0.00 0.00 0.00 63 1020.8
20260506201532 19 195 6.4 14.5 0.00 0.00 0.00 63 1021.0
20260506201028 19 211 6.4 12.9 0.00 0.00 0.00 64 1021.3
20260506200524 19 220 1.6 6.4 0.00 0.00 0.00 63 1021.3
20260506200021 19 225 6.4 11.3 0.00 0.00 0.00 61 1021.0
20260506195518 20 222 3.2 9.7 0.00 0.00 0.00 62 1021.0
20260506195014 20 230 3.2 9.7 0.00 0.00 0.00 63 1021.5
20260506194512 20 281 8.0 11.3 0.00 0.00 0.00 62 1021.4
20260506194008 19 218 3.2 12.9 0.00 0.00 0.00 64 1021.4
20260506193506 20 191 6.4 12.9 0.00 0.00 0.00 62 1021.5
20260506193002 20 129 4.8 11.3 0.00 0.00 0.00 64 1021.5
20260506192459 19 142 6.4 9.7 0.00 0.00 0.00 65 1021.4
20260506191955 18 197 9.7 12.9 0.00 0.00 0.00 67 1021.3
20260506191452 18 174 6.4 12.9 0.00 0.00 0.00 67 1021.4
20260506190948 19 274 3.2 9.7 0.00 0.00 0.00 65 1021.5
20260506190446 19 229 6.4 6.4 0.00 0.00 0.00 66 1021.3
20260506185942 18 250 6.4 12.9 0.00 0.00 0.00 68 1021.5
20260506185439 19 213 6.4 11.3 0.00 0.00 0.00 67 1021.6
20260506184936 18 219 6.4 11.3 0.00 0.00 0.00 68 1021.5
20260506184433 18 183 4.8 9.7 0.00 0.00 0.00 68 1021.8
20260506183930 18 190 4.8 6.4 0.00 0.00 0.00 68 1021.6
20260506183425 18 211 6.4 11.3 0.00 0.00 0.00 68 1021.5
20260506182923 18 218 3.2 6.4 0.00 0.00 0.00 69 1021.6
20260506182420 18 206 1.6 9.7 0.00 0.00 0.00 69 1021.6
20260506181918 18 211 8.0 11.3 0.00 0.00 0.00 68 1021.8
20260506181415 19 234 6.4 11.3 0.00 0.00 0.00 68 1021.7
20260506180912 19 208 6.4 11.3 0.00 0.00 0.00 67 1021.7
20260506180408 18 232 6.4 9.7 0.00 0.00 0.00 68 1021.7
20260506175905 20 210 9.7 12.9 0.00 0.00 0.00 65 1021.7
20260506175401 19 193 4.8 6.4 0.00 0.00 0.00 66 1021.8
20260506174859 19 306 3.2 12.9 0.00 0.00 0.00 67 1021.8
20260506174356 19 204 1.6 4.8 0.00 0.00 0.00 66 1021.7
20260506173853 19 225 8.0 12.9 0.00 0.00 0.00 67 1021.8
20260506173350 19 209 4.8 9.7 0.00 0.00 0.00 66 1021.7
20260506172847 19 217 1.6 6.4 0.00 0.00 0.00 66 1021.6
20260506172344 18 216 3.2 11.3 0.00 0.00 0.00 68 1021.7
20260506171841 18 238 4.8 11.3 0.00 0.00 0.00 67 1021.9
20260506171338 18 216 3.2 6.4 0.00 0.00 0.00 67 1021.6
20260506170836 18 216 3.2 4.8 0.00 0.00 0.00 64 1021.6
20260506170332 18 224 1.6 4.8 0.00 0.00 0.00 65 1021.6
20260506165831 18 217 4.8 9.7 0.00 0.00 0.00 65 1021.5
20260506165329 18 215 4.8 6.4 0.00 0.00 0.00 65 1021.6
20260506164825 18 247 1.6 6.4 0.00 0.00 0.00 67 1021.7
20260506164322 18 241 3.2 4.8 0.00 0.00 0.00 66 1021.5
20260506163819 18 195 3.2 6.4 0.00 0.00 0.00 66 1021.6
20260506163313 18 202 0.0 3.2 0.00 0.00 0.00 68 1021.6
20260506162810 17 211 3.2 11.3 0.00 0.00 0.00 69 1021.6
20260506162308 17 209 0.0 3.2 0.00 0.00 0.00 67 1021.5
20260506161804 17 198 1.6 9.7 0.00 0.00 0.00 68 1021.7
20260506161302 17 195 3.2 9.7 0.00 0.00 0.00 67 1021.6
20260506160800 17 220 3.2 4.8 0.00 0.00 0.00 67 1021.7
20260506160256 17 192 1.6 6.4 0.00 0.00 0.00 68 1021.5
20260506155755 17 212 4.8 4.8 0.00 0.00 0.00 69 1021.6
20260506155251 16 212 0.0 4.8 0.00 0.00 0.00 69 1021.4
20260506153358 16 221 1.6 1.6 0.00 0.00 0.00 67 1021.5
20260506152855 16 218 1.6 3.2 0.00 0.00 0.00 68 1021.7
20260506152352 16 209 1.6 4.8 0.00 0.00 0.00 70 1021.6
20260506151851 16 74 3.2 6.4 0.00 0.00 0.00 69 1021.6
20260506151347 15 185 1.6 11.3 0.00 0.00 0.00 70 1021.5
20260506150845 15 62 8.0 11.3 0.00 0.00 0.00 69 1021.7
20260506150341 15 211 1.6 3.2 0.00 0.00 0.00 71 1021.7
20260506145838 15 204 1.6 9.7 0.00 0.00 0.00 72 1021.6
20260506145334 15 100 3.2 6.4 0.00 0.00 0.00 71 1021.6
20260506144832 15 213 1.6 9.7 0.00 0.00 0.00 72 1021.4
20260506144328 15 116 1.6 3.2 0.00 0.00 0.00 73 1021.5
20260506143827 14 193 4.8 6.4 0.00 0.00 0.00 73 1021.3
20260506143323 14 81 3.2 4.8 0.00 0.00 0.00 73 1021.1
20260506142822 14 35 6.4 9.7 0.00 0.00 0.00 73 1021.4
20260506142319 14 182 1.6 3.2 0.00 0.00 0.00 74 1021.1
20260506141817 13 137 4.8 4.8 0.00 0.00 0.00 75 1021.1
20260506141315 13 114 1.6 3.2 0.00 0.00 0.00 77 1021.3
20260506140813 13 209 1.6 1.6 0.00 0.00 0.00 78 1020.9
20260506140309 12 209 0.0 3.2 0.00 0.00 0.00 79 1021.0
20260506135806 12 179 0.0 1.6 0.00 0.00 0.00 78 1021.1
20260506135305 12 196 0.0 3.2 0.00 0.00 0.00 81 1021.0
20260506134759 12 200 1.6 3.2 0.00 0.00 0.00 80 1021.0
20260506134256 12 214 1.6 3.2 0.00 0.00 0.00 81 1021.1
20260506133753 12 21 4.8 4.8 0.00 0.00 0.00 82 1021.0
20260506133250 12 237 1.6 4.8 0.00 0.00 0.00 82 1021.0
20260506132746 12 344 3.2 4.8 0.00 0.00 0.00 82 1021.0
20260506132244 11 306 3.2 6.4 0.00 0.00 0.00 83 1021.0
20260506131742 11 340 3.2 4.8 0.00 0.00 0.00 84 1020.9
20260506131237 11 229 3.2 3.2 0.00 0.00 0.00 85 1020.8
20260506130734 11 226 0.0 1.6 0.00 0.00 0.00 85 1020.7
20260506130231 11 288 1.6 4.8 0.00 0.00 0.00 84 1020.7
20260506125730 12 229 1.6 3.2 0.00 0.00 0.00 83 1020.6
20260506125227 12 271 3.2 4.8 0.00 0.00 0.00 82 1020.5
20260506124725 12 276 1.6 9.7 0.00 0.00 0.00 83 1020.6
20260506124223 12 304 1.6 3.2 0.00 0.00 0.00 84 1020.5
20260506123720 12 233 1.6 4.8 0.00 0.00 0.00 83 1020.5
20260506123218 12 206 3.2 4.8 0.00 0.00 0.00 83 1020.6
20260506122715 12 274 3.2 6.4 0.00 0.00 0.00 83 1020.5
20260506122212 12 66 1.6 4.8 0.00 0.00 0.00 83 1020.4
20260506121710 12 5 3.2 4.8 0.00 0.00 0.00 84 1020.3
20260506121206 12 4 3.2 4.8 0.00 0.00 0.00 85 1020.2
20260506120704 12 238 3.2 4.8 0.00 0.00 0.00 85 1020.3
20260506120201 12 286 1.6 4.8 0.00 0.00 0.00 86 1020.3
20260506115700 12 359 3.2 4.8 0.00 0.00 0.00 86 1020.1
20260506115158 12 357 3.2 4.8 0.00 0.00 0.00 86 1020.3
20260506114654 12 322 3.2 4.8 0.00 0.00 0.00 86 1020.2
20260506114152 12 101 4.8 6.4 0.00 0.00 0.00 85 1020.1
20260506113651 12 346 3.2 6.4 0.00 0.00 0.00 85 1020.2
20260506113148 12 353 6.4 9.7 0.00 0.00 0.00 85 1020.1
20260506112643 12 261 3.2 3.2 0.00 0.00 0.00 85 1020.1
20260506112142 12 255 3.2 4.8 0.00 0.00 0.00 84 1020.1
20260506111639 12 310 4.8 4.8 0.00 0.00 0.00 84 1020.2
20260506111136 12 240 1.6 4.8 0.00 0.00 0.00 85 1020.1
20260506110634 12 269 3.2 3.2 0.00 0.00 0.00 85 1020.3
20260506110131 12 197 1.6 4.8 0.00 0.00 0.00 84 1020.2
20260506105627 12 309 3.2 6.4 0.00 0.00 0.00 84 1020.2
20260506105124 12 336 4.8 4.8 0.00 0.00 0.00 84 1020.2
20260506104623 12 208 4.8 4.8 0.00 0.00 0.00 85 1020.0
20260506104120 12 330 3.2 4.8 0.00 0.00 0.00 86 1020.0
20260506103617 12 280 3.2 4.8 0.00 0.00 0.00 86 1020.1
20260506103114 12 89 3.2 4.8 0.00 0.00 0.00 87 1019.9
20260506102612 12 326 1.6 3.2 0.00 0.00 0.00 87 1020.0
20260506102109 11 330 4.8 4.8 0.00 0.00 0.00 88 1020.0
20260506101606 11 254 3.2 6.4 0.00 0.00 0.00 88 1020.1
20260506101103 12 0 3.2 4.8 0.00 0.00 0.00 87 1020.1
20260506100601 12 246 3.2 3.2 0.00 0.00 0.00 86 1020.1
20260506100059 12 172 0.0 1.6 0.00 0.00 0.00 86 1020.1
20260506095557 12 245 3.2 4.8 0.00 0.00 0.00 86 1020.1
20260506095053 12 15 3.2 9.7 0.00 0.00 0.00 85 1020.1
20260506094551 12 330 6.4 11.3 0.00 0.00 0.00 85 1020.0
20260506094049 12 338 4.8 4.8 0.00 0.00 0.00 86 1020.1
20260506093547 12 345 3.2 6.4 0.00 0.00 0.00 86 1020.2
20260506093044 12 156 3.2 4.8 0.00 0.00 0.00 86 1020.3
20260506092542 12 262 3.2 4.8 0.00 0.00 0.00 86 1020.2
20260506092038 12 340 3.2 6.4 0.00 0.00 0.00 86 1020.2
20260506091537 12 111 3.2 6.4 0.00 0.00 0.00 86 1020.3
20260506091034 12 334 3.2 6.4 0.00 0.00 0.00 86 1020.3
20260506090532 12 25 3.2 6.4 0.00 0.00 0.00 86 1020.6
20260506090027 12 220 1.6 4.8 0.00 0.00 0.00 86 1020.5
20260506085524 12 332 4.8 6.4 0.00 0.00 0.00 86 1020.4
20260506085021 12 50 4.8 6.4 0.00 0.00 0.00 87 1020.5
20260506084518 12 267 3.2 6.4 0.00 0.00 0.00 88 1020.3
20260506084014 12 307 4.8 6.4 0.00 0.00 0.00 88 1020.6
20260506083512 12 211 0.0 1.6 0.00 0.00 0.00 88 1020.5
20260506083009 12 221 3.2 4.8 0.00 0.00 0.00 88 1020.4
20260506082506 12 190 1.6 3.2 0.00 0.00 0.00 88 1020.4
20260506082001 12 192 1.6 3.2 0.00 0.00 0.00 88 1020.5
20260506081500 12 147 3.2 6.4 0.00 0.00 0.00 88 1020.5
20260506080957 12 310 4.8 4.8 0.00 0.00 0.00 88 1020.4
20260506080454 12 213 1.6 4.8 0.00 0.00 0.00 89 1020.5
20260506073437 12 335 4.8 9.7 0.00 0.00 0.00 89 1020.5
20260506072935 12 149 3.2 6.4 0.00 0.00 0.00 89 1020.5
20260506072432 12 177 1.6 9.7 0.00 0.00 0.00 89 1020.3
20260506071930 12 211 0.0 3.2 0.00 0.00 0.00 89 1020.3
20260506071427 12 166 3.2 6.4 0.00 0.00 0.00 89 1020.3
20260506070924 12 213 1.6 6.4 0.00 0.00 0.00 89 1020.2
20260506070421 12 219 1.6 4.8 0.00 0.00 0.00 89 1020.1
20260506062358 12 299 1.6 3.2 0.00 0.00 0.00 89 1019.8
20260506061854 12 156 1.6 1.6 0.00 0.00 0.00 89 1019.7
20260506061351 12 292 1.6 4.8 0.00 0.00 0.00 89 1019.6
20260506060849 12 192 1.6 3.2 0.00 0.00 0.00 89 1019.7
20260506060347 12 336 1.6 3.2 0.00 0.00 0.00 89 1019.6